This is the latest recevied weather packets stored in our database for station/object K3MV-13. If no packets are shown the sender has not sent any weather packets the latest 1 day(s).
| Time | Temp. | Humidity | Pressure | Rain* | Wind** | Luminosity | Snow |
|---|---|---|---|---|---|---|---|
| 1778071005 | 13.33° C | 92% | 1007.9 hPa | 0 mm | - | 35 W/m² | - |
| 1778070704 | 13.33° C | 92% | 1007.8 hPa | 0 mm | - | 51 W/m² | - |
| 1778070098 | 12.78° C | 93% | 1007.6 hPa | 0 mm | - | 64 W/m² | - |
| 1778068283 | 12.78° C | 93% | 1007.8 hPa | 0 mm | - | 42 W/m² | - |
| 1778067980 | 12.78° C | 93% | 1007.5 hPa | 0 mm | - | 54 W/m² | - |
| 1778067678 | 12.78° C | 93% | 1007.6 hPa | 0 mm | - | 55 W/m² | - |
| 1778067376 | 12.78° C | 93% | 1007.5 hPa | 0 mm | - | 79 W/m² | - |
| 1778067073 | 12.22° C | 93% | 1007.6 hPa | 0 mm | - | 62 W/m² | - |
| 1778065256 | 12.22° C | 92% | 1007.8 hPa | 1.27 mm | - | 4 W/m² | - |
| 1778064650 | 12.22° C | 91% | 1008 hPa | 1.78 mm | - | 9 W/m² | - |
| 1778064348 | 12.22° C | 91% | 1007.9 hPa | 1.78 mm | - | 6 W/m² | - |
| 1778064045 | 12.22° C | 90% | 1007.8 hPa | 1.27 mm | - | 3 W/m² | - |
| 1778062531 | 12.22° C | 88% | 1008.2 hPa | 0 mm | - | 1 W/m² | - |
| 1778062228 | 12.22° C | 88% | 1008.2 hPa | 1.27 mm | - | 1 W/m² | - |
| 1778061323 | 12.78° C | 85% | 1008.3 hPa | 1.78 mm | - | 0 W/m² | - |
| 1778060414 | 12.78° C | 83% | 1008.2 hPa | 0 mm | - | 0 W/m² | - |
| 1778058297 | 12.78° C | 82% | 1008.2 hPa | 0 mm | - | 0 W/m² | - |
| 1778057386 | 13.89° C | 74% | 1008.1 hPa | 0 mm | - | 0 W/m² | - |
| 1778057083 | 13.89° C | 74% | 1008.1 hPa | 0 mm | - | 0 W/m² | - |
| 1778056779 | 13.89° C | 74% | 1008 hPa | 0 mm | - | 0 W/m² | - |
| 1778055871 | 13.33° C | 79% | 1008 hPa | 0 mm | - | 0 W/m² | - |
| 1778055566 | 13.33° C | 78% | 1008 hPa | 0 mm | - | 0 W/m² | - |
| 1778055265 | 13.33° C | 77% | 1008.2 hPa | 0 mm | - | 0 W/m² | - |
| 1778054658 | 13.89° C | 77% | 1008.1 hPa | 0 mm | - | 0 W/m² | - |
| 1778054356 | 13.89° C | 74% | 1008.1 hPa | 0 mm | - | 0 W/m² | - |
* Rain latest hour (hover to see other rain measurements)
** Current wind speed in m/s (hover to see current wind gust speed)